Regional Weather Roundup
Issued by NWS

Home | Current Version | Previous Version | Text Only | Print | Product List | Glossary On
Versions: 1 2 3 4 5 6 7 8 9 10 11 12 13 14 15 16 17 18 19 20 21 22 23 24 25 26 27 28 29 30 31 32 33 34 35 36 37 38 39 40 41 42 43 44 45 46 47 48 49 50
000
ASUS43 KDMX 221506
RWRIA

WEATHER ROUNDUP FOR IOWA
NATIONAL WEATHER SERVICE DES MOINES IA
900 AM CST SUN JAN 22 2017

NOTE: "FAIR" INDICATES FEW OR NO CLOUDS BELOW 12,000 FEET WITH NO
SIGNIFICANT WEATHER AND/OR OBSTRUCTIONS TO VISIBILITY.

* - THESE STATIONS ARE NOT NWS STATIONS...THUS NOT UNDER NWS
QUALITY CONTROL.  THEY ALSO DO NOT REPORT WEATHER SUCH
AS PRECIPITATION OR FOG.

IAZ001>003-012>014-020>022-031>034-043>046-221600-
   NORTHWEST IOWA

CITY           SKY/WX    TMP DP  RH WIND       PRES   REMARKS
CARROLL *      CLOUDY    34  34 100 NW13      29.70R WCI  25
CHEROKEE *     CLOUDY    33  33  97 NW6       29.73R FOG     WCI  28
DENISON *      CLOUDY    32  32 100 NW10      29.70R FOG     WCI  24
LE MARS *      CLOUDY    34  32  93 NW6       29.76R FOG     WCI  29
ORANGE CITY *  CLOUDY    34  32  93 NW10      29.73R FOG     WCI  26
SHELDON *      CLOUDY    32  32 100 NW8       29.71R FOG     WCI  25
SIOUX CITY     CLOUDY    34  31  88 NW14      29.74R WCI  25
SPENCER          N/A    N/A N/A N/A MISG      29.71R
STORM LAKE *   CLOUDY    32  32 100 NW10      29.71R FOG     WCI  24
$$

IAZ055>058-069>071-079>083-090>094-221600-
   SOUTHWEST IOWA

CITY           SKY/WX    TMP DP  RH WIND       PRES   REMARKS
ATLANTIC *     CLOUDY    32  32 100 NW9       29.72R WCI  24
AUDUBON *      CLOUDY    32  30  93 NW9       29.72R FOG     WCI  24
CLARINDA *     CLOUDY    32  32 100 N13       29.75R WCI  22
COUNCIL BLFS * CLOUDY    32  32 100 MISG      29.73R
CRESTON *      CLOUDY    32  32 100 N7        29.71R FOG     WCI  26
HARLAN  *      CLOUDY    32  32 100 N9        29.76R WCI  24
LAMONI         CLOUDY    31  30  96 N15G22    29.69R FOG     WCI  20
RED OAK *      CLOUDY    32  32 100 N9        29.74R FOG     WCI  24
SHENANDOAH *   CLOUDY    32  30  93 N12       29.75R WCI  23
$$

IAZ047>049-059>061-072>074-084-221600-
   CENTRAL IOWA

CITY           SKY/WX    TMP DP  RH WIND       PRES   REMARKS
AMES           CLOUDY    33  33 100 NW8       29.68R FOG     WCI  26
ANKENY *       CLOUDY    34  32  93 NW7       29.71R WCI  28
BOONE *        FOG       34  34 100 NW9       29.67R VSB 1/2 WCI  26
CHARITON *     CLOUDY    32  32 100 N10       29.69R WCI  24
DES MOINES     CLOUDY    34  32  92 NW10      29.69R WCI  26
GRINNELL*      CLOUDY    32  32 100 NW6       29.67R WCI  26
KNOXVILLE *    CLOUDY    32  32 100 NW5       29.68R WCI  27
MARSHALLTOWN   CLOUDY    33  33 100 W7        29.66R FOG     WCI  27
NEWTON *       CLOUDY    32  32 100 W6        29.67R WCI  26
PELLA *        CLOUDY    32  32  99 NW5       29.71R FOG     WCI  28
PERRY *        CLOUDY    33  33  99 NW7       29.70R FOG     WCI  27
$$

IAZ004>006-015-016-023>025-035-036-221600-
   NORTH CENTRAL IOWA

CITY           SKY/WX    TMP DP  RH WIND       PRES   REMARKS
ALGONA *       FOG       34  34 100 NW9       29.69R VSB<1/4 WCI  26
CLARION *      FOG       34  34 100 NW8       29.68R VSB<1/4 WCI  27
ESTHERVILLE    FOG       33  33 100 NW10      29.69R VSB 1/2 WCI  25
FORT DODGE *   CLOUDY    34  30  86 CALM      29.70R
MASON CITY     FOG       33  32  96 NW9       29.68R VSB 1/2 WCI  25
FOREST CITY *  CLOUDY    34  34 100 NW3       29.68R FOG
WEBSTER CITY * FOG       34 N/A N/A NW12      29.66R VSB 1/2 WCI  25
IOWA FALLS *   CLOUDY    34  33  98 NW8       29.67R FOG     WCI  27
$$

IAZ007>011-017>019-026>030-037>042-050>054-066-221600-
   NORTHEAST IOWA

CITY           SKY/WX    TMP DP  RH WIND       PRES   REMARKS
CEDAR RAPIDS   CLOUDY    32  32 100 NW9       29.65R FOG     WCI  24
CHARLES CITY * CLOUDY    34  34 100 NW6       29.66R FOG     WCI  29
CLINTON *      FOG       30  29  96 CALM      29.66R VSB 1/4
DECORAH *      CLOUDY    34  34 100 NW5       29.64R FOG     WCI  30
DUBUQUE        CLOUDY    33  32  96 CALM      29.64R FOG
MONTICELLO *   FOG       32  32 100 CALM      29.65R VSB 1/4
OELWEIN *      CLOUDY    32  32 100 NW5       29.65S FOG     WCI  27
WATERLOO       CLOUDY    33  30  88 N7        29.66R WCI  27
$$

IAZ064-065-067-068-078-221600-
   EAST CENTRAL IOWA

CITY           SKY/WX    TMP DP  RH WIND       PRES   REMARKS
DAVENPORT      CLOUDY    31  31 100 CALM      29.66R FOG
IOWA CITY      CLOUDY    34  33  96 W5        29.69R FOG     WCI  30
MUSCATINE *    CLOUDY    34  32  93 NW5       29.68R FOG     WCI  30
QUAD CITIES    CLOUDY    34  32  92 CALM      29.65R FOG
$$

IAZ062-063-075>077-085>089-095>099-221600-
   SOUTHEAST IOWA

CITY           SKY/WX    TMP DP  RH WIND       PRES   REMARKS
BURLINGTON     MIX PCPN  38  37  97 N5        29.64R FOG     WCI  34
FAIRFIELD *    FOG       32  32 100 NW6       29.67R VSB<1/4 WCI  26
FORT MADISON * DRIZZLE   37  36  93 CALM      29.66R
KEOKUK *       CLOUDY    37 N/A N/A N6        29.64R FOG     WCI  33
CENTERVILLE *  FOG       32  32 100 NW12      29.69R VSB 1   WCI  23
OTTUMWA        FOG       33  31  92 NW10      29.68R VSB 1   WCI  25
WASHINGTON *   FOG       32  32 100 W5        29.68R VSB<1/4 WCI  27
$$

ABBREVIATIONS USED IN REMARKS
   TC - TEMPERATURES IN CELSIUS
  WCI - WIND CHILL INDEX
   HX - HEAT INDEX
  VSB - VISIBILITY
$$




USA.gov is the U.S. government's official web portal to all federal, state and local government web resources and services.